Regional Weather Roundup
Issued by NWS

Home | Current Version | Previous Version | Graphics & Text | Print | Product List | Glossary On
Versions: 1 2 3 4 5 6 7 8 9 10 11 12 13 14 15 16 17 18 19 20 21 22 23 24 25 26 27 28 29 30 31 32 33 34 35 36 37 38 39 40 41 42 43 44 45 46 47 48 49 50
000
ASUS45 KTFX 300519
RWRMT
MONTANA HOURLY WEATHER ROUNDUP
NATIONAL WEATHER SERVICE GREAT FALLS MT
1119 PM MDT MON SEP 29 2014

NOTE: "FAIR" INDICATES FEW OR NO CLOUDS BELOW 12000 FEET WITH NO
SIGNIFICANT WEATHER AND/OR OBSTRUCTIONS TO VISIBILITY.

* THESE STATIONS ARE NOT UNDER NWS QUALITY CONTROL. THEY DO NOT
   REPORT WEATHER SUCH AS PRECIPITATION OR FOG.

MTZ001>007-043-300600-
WEST OF THE DIVIDE
CITY           SKY/WX    TMP DP  RH WIND       PRES   REMARKS
KALISPELL      CLOUDY    55  48  77 SE12      29.77S
MISSOULA       LGT RAIN  52  52 100 CALM      29.85S
BUTTE          LGT RAIN  48  45  89 W3        29.87S
MULLAN PASS    MOCLDY    43  41  93 W7        29.88S
* ESSEX        N/A       53  44  72 SW2G7      N/A
* LINCOLN      N/A       53  43  69 SW6G14     N/A
* LOOKOUT PASS N/A       46  44  93 W1         N/A
* POLSON       N/A       48  48 100 S1         N/A
* RONAN APT    CLOUDY    52  48  86 E5         N/A
* SEELEY LAKE  N/A       49  48  96 N/A        N/A
* THOMP F APT  MOCLDY    42  40  93 S3         N/A
* YAAK HILL    N/A       55  44  67 N/A        N/A
$$

MTZ008-052>055-300600-
SOUTHWEST MONTANA
CITY           SKY/WX    TMP DP  RH WIND       PRES   REMARKS
BOZEMAN        MOCLDY    48  43  83 SE5       29.81F
DILLON         CLOUDY    50  43  77 SW10      29.86R
W YELLOWSTONE  CLOUDY    41  39  93 W5G20     29.95F
* THREE FORKS  PTCLDY    52   0  12 N/A        N/A
* BOULDER HILL N/A       50  39  66 S4G10      N/A
* RAYNOLDS PAS N/A       43  28  56 SE9G14     N/A
* WHITEHALL    N/A       57  42  57 W9G16      N/A
* WISE RIVER   N/A       48  44  86 NW8        N/A
$$

MTZ009>010-012-014-046-048-049-054-300600-
EAST SLOPES AND CENTRAL MONTANA
CITY           SKY/WX    TMP DP  RH WIND       PRES   REMARKS
CUT BANK       CLOUDY    57  41  55 W18       29.65F
GREAT FALLS    MOCLDY    54  45  72 SW13      29.68S
HELENA         MOCLDY    57  45  64 W16G25    29.77S
MALMSTROM AFB  MOCLDY    55  45  69 SW15      29.69F
* CONRAD       MOCLDY    55  52  90 N/A        N/A
* DEARBORN     N/A       60  43  54 S6G19      N/A
* EAST GLACIER N/A       51  41  69 W17G24     N/A
* MONARCH      N/A       52  34  50 SW17G22    N/A
* PENDROY      N/A       55  39  55 NW14G20    N/A
* ROGERS PASS  N/A       48  42  80 E8G28      N/A
* SAINT MARY   N/A       53  41  64 S11G22     N/A
* SWEET GRASS  N/A       55  45  69 S12        N/A
* WHITE SULPH  N/A       51  42  71 S7G13      N/A
$$

MTZ011-013-016-021-035-040-045-047-050-051-300600-
NORTH CENTRAL MONTANA
CITY           SKY/WX    TMP DP  RH WIND       PRES   REMARKS
LEWISTOWN      CLEAR     54  43  67 SW13      29.73S
* CHINOOK      PTCLDY    50  48  93 E13       29.66F
* FORT BENTON  PTCLDY    54  46  74 S5        29.66F
* CHESTER      N/A       51  47  86 SE7G13     N/A
* DENTON       N/A       51  45  80 S10        N/A
* GEYSER       N/A       49  40  71 S3         N/A
* JUDITH GAP   N/A       41  41 100 S2         N/A
* LOMA         N/A       50  48  93 NE8        N/A
$$

MTZ017>020-022>027-061-062-300600-
NORTHEAST MONTANA
CITY           SKY/WX    TMP DP  RH WIND       PRES   REMARKS
GLASGOW        PTCLDY    48  46  93 E15       29.76S
GLENDIVE       CLOUDY    52  48  86 SE6       29.83F
JORDAN         PTCLDY    48  46  93 SE9       29.78F
SIDNEY         CLOUDY    54  48  80 S7        29.86F
WOLF POINT     CLOUDY    52  48  86 SE8       29.83S
* BEAVER HILL  N/A       50  49  96 SE12G20    N/A
* CIRCLE       N/A       50  48  93 SE4G12     N/A
* LINDSAY DVD  N/A       49  48  96 SE10       N/A
* NAVAJO       N/A       48  46  93 SE14       N/A
$$

MTZ028>042-056>058-300600-
SOUTHCENTRAL AND SOUTHEAST MONTANA
CITY           SKY/WX    TMP DP  RH WIND       PRES   REMARKS
BAKER          FOG       52  50  93 SE9       29.84F VSB 2 1/2
BILLINGS       CLEAR     52  48  86 CALM      29.78S
LIVINGSTON     PTCLDY    54  43  67 W15G24    29.78F
MILES CITY     CLOUDY    54  48  80 SE8       29.80F
* LAUREL APT   CLEAR     46  45  96 N/A        N/A
* ROUNDUP APT  CLEAR     52  45  77 N/A        N/A
* ALZADA       N/A       50  50 100 E9         N/A
* HYSHAM       N/A       52  49  90 SE10       N/A
* LAME DEER    N/A       49  49 100 E6         N/A
* REED POINT   N/A       47  46  96 SE2        N/A
$$

REGIONAL REPORTS...DAKOTAS
CITY           SKY/WX    TMP DP  RH WIND       PRES   REMARKS
WILLISTON      CLOUDY    54  48  80 SE8       29.88F
DICKINSON      CLOUDY    52  48  86 SE10      29.86F
BEACH          FOG       50  50 100 SE15G20   29.84F
CROSBY         CLOUDY    52  50  93 SE12      29.88F
TIOGA          CLOUDY    50  50 100 SE9       29.92F
WATFORD CITY   CLOUDY    52  48  86 SE10      29.86F
BISMARCK       CLOUDY    55  48  77 E12       29.95F
GRAND FORKS    CLEAR     48  45  89 SE8       30.05S
FARGO          CLEAR     48  45  89 SE12      30.06R
BUFFALO SD     CLOUDY    54  52  93 E14       29.79F
RAPID CITY     HVY RAIN  52  52 100 NW6       29.81F VSB 2 1/2
$$

REGIONAL REPORTS...WYOMING/IDAHO/WASHINGTON
CITY           SKY/WX    TMP DP  RH WIND       PRES   REMARKS
GILLETTE       CLOUDY    52  48  86 SE9       29.81F
SHERIDAN       CLOUDY    52  48  86 NW5       29.80F
CODY           PTCLDY    54  37  53 NW10      29.84S
YELLOWSTONE LA CLOUDY    39  36  89 VRB3      30.01S
SALMON         CLOUDY    52  48  86 CALM      29.90R
MULLAN PASS    MOCLDY    43  41  93 W7        29.88S
SAND POINT     MOCLDY    50  50 100 CALM      29.76S
SPOKANE        CLOUDY    64  45  50 S15       29.75F
$$

REGIONAL REPORTS...ALBERTA
CITY           SKY/WX    TMP DP  RH WIND       PRES   REMARKS
CALGARY        MOCLDY    50  41  71 N6        29.58F
LETHBRIDGE     CLOUDY    57  43  60 SW13G18   29.57F
MEDICINE HAT   PTCLDY    55  48  77 SW6       29.57F
EDMONTON       MOCLDY    43  41  93 SE6       29.56S
WATERTON GATE  N/A       55  43  64 SW16G23    N/A
CARDSTON       N/A       59  43  56 W13G21     N/A
MILK RIVER     N/A       54  45  72 S8         N/A
$$

REGIONAL REPORTS...SASKATCHEWAN
CITY           SKY/WX    TMP DP  RH WIND       PRES   REMARKS
SWIFT CURRENT  CLOUDY    46  45  96 SE24G32   29.67F
REGINA         CLOUDY    48  43  83 SE21G31   29.83F
VAL MARIE      N/A       48  48 100 SE15G21    N/A
ASSINIBOIA     N/A       48  45  89 SE13       N/A
CORONACH       N/A       48  46  93 SE15G23    N/A

$$



USA.gov is the U.S. government's official web portal to all federal, state and local government web resources and services.